Location: Jackson
(42.2460°N, 84.4010°W)
Time: 18:04:46
(UTC-05:00)

BlueWalker 3 - Pass Details

Date: 24 January 2026
Orbit: 450 x 461 km, 53.2° (Epoch: 14 February)

Event Time Altitude Azimuth Distance (km) Brightness Sun altitude
Rises 20:03:27 0° 279° (W) 2,454 6.7 -26.1°
Reaches altitude 10° 20:06:05 10° 299° (WNW) 1,582 5.2 -26.6°
Enters shadow 20:07:36 16° 323° (NW) 1,250 4.3 -26.9°
